NANOSATC-BR1

Last updated on Sat Apr 13 2024 01:03:32 GMT+0100 (British Summer Time)

1 40024U 14033Q 24103.47796718 .00009467 00000+0 73639-3 0 9996 2 40024 98.0554 72.9667 0008556 42.7315 317.4572 15.01475269533387
UTC large
Height (km)
Speed (km/s)
/
Latitude / Longitude
Inclination (degrees)
Orbital Period (minutes)
Azimuth
Elevation
Range (km)
Doppler Factor

Next 0 passes for location: London (51.5072 / 0.1276)

Sorry there are no passes over London.